Location: Helsinki
(60.1699°N, 24.9384°E)
Time: 19:20:18
(UTC+03:00)

A-11 Canister half - Pass Details

Date: 29 May 2024
Orbit: 1525 x 1683 km, 47.3° (Epoch: 14 June)

Event Time Altitude Azimuth Distance (km) Brightness Sun altitude
Rises 01:45:00 0° 270° (W) 4,727 11.5 -8.0°
Reaches altitude 10° 01:48:30 10° 260° (W) 3,762 10.9 -7.9°
Maximum altitude 01:56:19 30° 205° (SSW) 2,568 9.7 -7.8°
Drops below altitude 10° 02:04:21 10° 149° (SSE) 3,860 10.7 -7.6°
Sets 02:08:00 0° 140° (SE) 4,868 11.3 -7.5°
